RYR9MJ LEMH-EGCC

Flight info

Callsign RYR9MJ
Flight time 2h 16m
Altitude 34000
Route MEROS N853 LUMAS DCT SOFFY DCT MRM DCT MTL DCT ETREK DCT MADOT/N0453F360 DCT MOPEM DCT CACHI DCT AVLON DCT OKRIX DCT BRY DCT CLM DCT KOPOR DCT VESAN DCT RATUK DCT SOVAT L613 SANDY UN57 WELIN T420 ELVOS
Aircraft B738/M-SDE3FGILRWY/SB1

Departure

Time 2026-04-23 15:45
Airport Menorca Airport (LEMH)

Arrival

Time 2026-04-23 18:01
Airport Manchester Airport (EGCC)
Time Latitude Longitude Altitude Speed Heading
2026-04-23 15:11 39.86529 4.22423 285 ft 0 kts 98°
2026-04-23 15:37 39.86533 4.22399 285 ft 4 kts 99°
2026-04-23 15:37 39.86536 4.22371 286 ft 3 kts 99°
2026-04-23 15:37 39.86543 4.22341 287 ft 4 kts 143°
2026-04-23 15:38 39.86563 4.22338 288 ft 4 kts 189°
2026-04-23 15:38 39.86576 4.22340 288 ft 1 kts 189°
2026-04-23 15:40 39.86565 4.22338 292 ft 4 kts 189°
2026-04-23 15:41 39.86538 4.22297 288 ft 8 kts 260°
2026-04-23 15:41 39.86545 4.22209 294 ft 11 kts 275°
2026-04-23 15:41 39.86490 4.22150 296 ft 14 kts 189°
2026-04-23 15:41 39.86382 4.22128 294 ft 18 kts 189°
2026-04-23 15:42 39.86246 4.22101 293 ft 22 kts 189°
2026-04-23 15:42 39.86086 4.22068 296 ft 25 kts 189°
2026-04-23 15:42 39.85907 4.22031 299 ft 27 kts 189°
2026-04-23 15:42 39.85715 4.21992 290 ft 28 kts 189°
2026-04-23 15:43 39.85532 4.21953 285 ft 26 kts 189°
2026-04-23 15:43 39.85360 4.21919 281 ft 24 kts 188°
2026-04-23 15:43 39.85199 4.21885 280 ft 23 kts 189°
2026-04-23 15:43 39.85127 4.21801 285 ft 14 kts 278°
2026-04-23 15:44 39.85143 4.21683 284 ft 13 kts 283°
2026-04-23 15:44 39.85238 4.21655 288 ft 22 kts
2026-04-23 15:44 39.85619 4.21733 294 ft 90 kts
2026-04-23 15:44 39.86448 4.21905 302 ft 150 kts
2026-04-23 15:45 39.87570 4.22106 724 ft 166 kts 11°
2026-04-23 15:45 39.88717 4.22343 1481 ft 170 kts 13°
2026-04-23 15:45 39.89951 4.22622 1930 ft 194 kts 13°
2026-04-23 15:45 39.91365 4.22941 2268 ft 215 kts 13°
2026-04-23 15:46 39.92881 4.23266 2785 ft 221 kts 12°
2026-04-23 15:46 39.94441 4.23602 3079 ft 244 kts 12°
2026-04-23 15:46 39.96192 4.23979 3509 ft 261 kts 12°
2026-04-23 15:46 39.98003 4.24362 4273 ft 265 kts 11°
2026-04-23 15:47 39.99831 4.24747 5099 ft 267 kts 11°
2026-04-23 15:47 40.01670 4.25140 5899 ft 269 kts 11°
2026-04-23 15:47 40.03521 4.25570 6669 ft 272 kts 11°
2026-04-23 15:47 40.05386 4.26014 7442 ft 275 kts 11°
2026-04-23 15:48 40.07279 4.26468 8185 ft 278 kts 11°
2026-04-23 15:48 40.09187 4.26923 8921 ft 280 kts 10°
2026-04-23 15:48 40.11117 4.27385 9649 ft 283 kts
2026-04-23 15:48 40.13051 4.27846 10427 ft 284 kts
2026-04-23 15:49 40.15056 4.28323 10697 ft 304 kts
2026-04-23 15:49 40.17211 4.28834 10879 ft 325 kts
2026-04-23 15:49 40.19504 4.29378 11076 ft 344 kts
2026-04-23 15:49 40.21892 4.29948 11553 ft 352 kts
2026-04-23 15:50 40.24296 4.30525 12329 ft 351 kts
2026-04-23 15:50 40.26706 4.31104 13007 ft 354 kts
2026-04-23 15:50 40.29137 4.31686 13638 ft 358 kts
2026-04-23 15:50 40.31600 4.32277 14298 ft 361 kts
2026-04-23 15:51 40.34084 4.32872 14977 ft 364 kts
2026-04-23 15:51 40.36590 4.33474 15651 ft 368 kts
2026-04-23 15:51 40.39118 4.34081 16301 ft 371 kts
2026-04-23 15:51 40.41670 4.34694 16916 ft 375 kts
2026-04-23 15:52 40.44243 4.35312 17552 ft 377 kts
2026-04-23 15:52 40.46829 4.35935 18161 ft 380 kts
2026-04-23 15:52 40.49443 4.36564 18736 ft 383 kts
2026-04-23 15:52 40.52072 4.37192 19308 ft 385 kts
2026-04-23 15:53 40.54718 4.37817 19922 ft 387 kts
2026-04-23 15:53 40.57377 4.38446 20499 ft 389 kts
2026-04-23 15:53 40.60053 4.39081 21032 ft 392 kts
2026-04-23 15:53 40.62747 4.39719 21557 ft 394 kts
2026-04-23 15:54 40.65454 4.40361 22079 ft 396 kts
2026-04-23 15:54 40.68178 4.41008 22540 ft 399 kts
2026-04-23 15:54 40.70917 4.41659 22985 ft 402 kts
2026-04-23 15:54 40.73673 4.42315 23449 ft 404 kts
2026-04-23 15:55 40.76441 4.42976 23902 ft 405 kts
2026-04-23 15:55 40.79227 4.43641 24315 ft 408 kts
2026-04-23 15:55 40.82026 4.44310 24749 ft 410 kts
2026-04-23 15:55 40.84843 4.44983 25142 ft 413 kts
2026-04-23 15:56 40.87674 4.45661 25568 ft 414 kts
2026-04-23 15:56 40.90517 4.46343 25942 ft 416 kts
2026-04-23 15:56 40.93375 4.47037 26297 ft 419 kts
2026-04-23 15:56 40.96247 4.47740 26645 ft 421 kts
2026-04-23 15:57 40.99134 4.48448 26989 ft 423 kts
2026-04-23 15:57 41.02033 4.49159 27326 ft 424 kts
2026-04-23 15:57 41.04943 4.49872 27633 ft 426 kts
2026-04-23 15:57 41.07866 4.50588 27962 ft 428 kts
2026-04-23 15:58 41.10797 4.51305 28288 ft 429 kts
2026-04-23 15:58 41.13739 4.52022 28644 ft 430 kts
2026-04-23 15:58 41.16636 4.52730 29085 ft 427 kts
2026-04-23 15:58 41.19546 4.53441 29565 ft 424 kts
2026-04-23 15:59 41.22446 4.54151 29975 ft 423 kts
2026-04-23 15:59 41.25334 4.54859 30410 ft 421 kts
2026-04-23 15:59 41.28209 4.55564 30786 ft 420 kts
2026-04-23 15:59 41.31084 4.56268 31145 ft 419 kts
2026-04-23 16:00 41.33949 4.56973 31505 ft 419 kts
2026-04-23 16:00 41.36814 4.57675 31824 ft 419 kts
2026-04-23 16:00 41.39677 4.58379 32172 ft 418 kts
2026-04-23 16:00 41.42529 4.59083 32551 ft 416 kts
2026-04-23 16:01 41.45366 4.59782 32914 ft 414 kts
2026-04-23 16:01 41.48201 4.60481 33203 ft 414 kts
2026-04-23 16:01 41.51037 4.61180 33454 ft 415 kts
2026-04-23 16:01 41.53875 4.61881 33762 ft 414 kts
2026-04-23 16:02 41.56700 4.62581 34110 ft 412 kts
2026-04-23 16:02 41.62385 4.63987 34184 ft 417 kts
2026-04-23 16:03 41.68074 4.65402 34175 ft 412 kts
2026-04-23 16:03 41.73684 4.66819 34188 ft 410 kts
2026-04-23 16:04 41.79217 4.68847 34193 ft 414 kts 11°
2026-04-23 16:04 41.84692 4.71078 34195 ft 414 kts 11°
2026-04-23 16:05 41.89317 4.72947 34195 ft 414 kts 11°
2026-04-23 16:05 41.95744 4.75502 34200 ft 415 kts 10°
2026-04-23 16:06 42.01294 4.77692 34211 ft 416 kts 11°
2026-04-23 16:06 42.06848 4.79885 34211 ft 416 kts 11°
2026-04-23 16:07 42.12411 4.82084 34208 ft 417 kts 11°
2026-04-23 16:07 42.17970 4.84289 34214 ft 417 kts 11°
2026-04-23 16:08 42.23534 4.86498 34201 ft 417 kts 11°
2026-04-23 16:08 42.29102 4.88713 34201 ft 417 kts 11°
2026-04-23 16:09 42.34673 4.90932 34201 ft 418 kts 11°
2026-04-23 16:09 42.40248 4.93159 34205 ft 418 kts 11°
2026-04-23 16:10 42.45824 4.95388 34219 ft 417 kts 11°
2026-04-23 16:10 42.51392 4.97621 34208 ft 417 kts 11°
2026-04-23 16:11 42.56958 4.99857 34214 ft 417 kts 11°
2026-04-23 16:11 42.62522 5.02091 34216 ft 417 kts 11°
2026-04-23 16:12 42.68086 5.04335 34205 ft 417 kts 11°
2026-04-23 16:12 42.73644 5.06580 34207 ft 417 kts 11°
2026-04-23 16:13 42.79198 5.08828 34221 ft 417 kts 11°
2026-04-23 16:13 42.87537 5.12210 34214 ft 417 kts 12°
2026-04-23 16:14 42.93104 5.14472 34223 ft 418 kts 12°
2026-04-23 16:14 42.98675 5.16743 34220 ft 418 kts 12°
2026-04-23 16:15 43.04261 5.19016 34214 ft 419 kts 12°
2026-04-23 16:15 43.09856 5.21276 34217 ft 420 kts 12°
2026-04-23 16:16 43.15463 5.23545 34212 ft 421 kts 12°
2026-04-23 16:16 43.21085 5.25825 34214 ft 422 kts 12°
2026-04-23 16:17 43.26721 5.28119 34216 ft 423 kts 13°
2026-04-23 16:17 43.31410 5.30030 34215 ft 423 kts 13°
2026-04-23 16:18 43.37142 5.31511 34231 ft 417 kts 357°
2026-04-23 16:18 43.42841 5.30412 34207 ft 414 kts 341°
2026-04-23 16:19 43.48315 5.27893 34215 ft 415 kts 340°
2026-04-23 16:19 43.53793 5.25318 34216 ft 417 kts 340°
2026-04-23 16:20 43.59297 5.22771 34211 ft 417 kts 340°
2026-04-23 16:20 43.64814 5.20237 34206 ft 418 kts 341°
2026-04-23 16:21 43.70339 5.17702 34222 ft 418 kts 341°
2026-04-23 16:21 43.75867 5.15164 34205 ft 419 kts 341°
2026-04-23 16:22 43.81393 5.12622 34219 ft 418 kts 341°
2026-04-23 16:22 43.86911 5.10074 34209 ft 418 kts 340°
2026-04-23 16:23 43.92420 5.07526 34217 ft 417 kts 340°
2026-04-23 16:23 43.97915 5.04981 34214 ft 415 kts 340°
2026-04-23 16:24 44.03387 5.02441 34198 ft 414 kts 341°
2026-04-23 16:24 44.08856 4.99897 34218 ft 422 kts 341°
2026-04-23 16:25 44.14463 4.97284 34218 ft 426 kts 341°
2026-04-23 16:25 44.20087 4.94660 34212 ft 426 kts 341°
2026-04-23 16:26 44.25709 4.92028 34218 ft 426 kts 341°
2026-04-23 16:26 44.31315 4.89399 34219 ft 424 kts 341°
2026-04-23 16:27 44.36903 4.86776 34206 ft 423 kts 341°
2026-04-23 16:27 44.42473 4.84155 34210 ft 422 kts 341°
2026-04-23 16:28 44.48035 4.81530 34198 ft 421 kts 341°
2026-04-23 16:28 44.53584 4.78908 34201 ft 420 kts 341°
2026-04-23 16:29 44.59274 4.77053 34222 ft 420 kts 350°
2026-04-23 16:29 44.65060 4.75834 34197 ft 421 kts 350°
2026-04-23 16:30 44.70857 4.74598 34193 ft 422 kts 350°
2026-04-23 16:30 44.76666 4.73324 34188 ft 423 kts 350°
2026-04-23 16:31 44.82494 4.72028 34197 ft 425 kts 350°
2026-04-23 16:31 44.88343 4.70726 34188 ft 427 kts 350°
2026-04-23 16:32 44.94224 4.69414 34185 ft 429 kts 351°
2026-04-23 16:32 45.00126 4.68094 34198 ft 430 kts 351°
2026-04-23 16:33 45.06058 4.66765 34193 ft 433 kts 351°
2026-04-23 16:33 45.12019 4.65426 34193 ft 435 kts 351°
2026-04-23 16:34 45.18005 4.64081 34196 ft 437 kts 351°
2026-04-23 16:34 45.24014 4.62714 34201 ft 438 kts 351°
2026-04-23 16:35 45.30040 4.61331 34209 ft 439 kts 351°
2026-04-23 16:35 45.36046 4.59952 34200 ft 441 kts 351°
2026-04-23 16:36 45.42101 4.58557 34212 ft 441 kts 351°
2026-04-23 16:36 45.48172 4.57157 34219 ft 443 kts 351°
2026-04-23 16:37 45.54257 4.55753 34219 ft 443 kts 351°
2026-04-23 16:37 45.60352 4.54340 34221 ft 444 kts 351°
2026-04-23 16:38 45.66455 4.52923 34221 ft 445 kts 351°
2026-04-23 16:38 45.72572 4.51501 34212 ft 446 kts 351°
2026-04-23 16:39 45.78698 4.50076 34213 ft 446 kts 351°
2026-04-23 16:39 45.84833 4.48647 34215 ft 447 kts 351°
2026-04-23 16:40 45.90969 4.47211 34207 ft 447 kts 351°
2026-04-23 16:40 45.97101 4.45776 34208 ft 447 kts 351°
2026-04-23 16:41 46.03236 4.44338 34206 ft 447 kts 352°
2026-04-23 16:41 46.09339 4.42904 34205 ft 449 kts 352°
2026-04-23 16:42 46.15611 4.41428 34372 ft 457 kts 352°
2026-04-23 16:42 46.18715 4.40694 34584 ft 459 kts 352°
2026-04-23 16:42 46.21859 4.39950 34915 ft 457 kts 352°
2026-04-23 16:43 46.24982 4.39210 35285 ft 454 kts 352°
2026-04-23 16:43 46.28089 4.38474 35650 ft 451 kts 351°
2026-04-23 16:43 46.31160 4.37583 35971 ft 449 kts 348°
2026-04-23 16:43 46.34237 4.36532 36197 ft 449 kts 347°
2026-04-23 16:44 46.40302 4.34324 36215 ft 453 kts 347°
2026-04-23 16:44 46.46398 4.32121 36205 ft 450 kts 347°
2026-04-23 16:45 46.52470 4.29971 36213 ft 448 kts 347°
2026-04-23 16:45 46.58520 4.27841 36211 ft 447 kts 347°
2026-04-23 16:46 46.64561 4.25712 36214 ft 447 kts 347°
2026-04-23 16:46 46.70611 4.23574 36215 ft 448 kts 347°
2026-04-23 16:47 46.76686 4.21418 36215 ft 450 kts 348°
2026-04-23 16:47 46.82790 4.19249 36217 ft 453 kts 348°
2026-04-23 16:48 46.88932 4.17061 36226 ft 456 kts 348°
2026-04-23 16:48 46.95111 4.14854 36221 ft 458 kts 348°
2026-04-23 16:49 47.01324 4.12630 36220 ft 461 kts 348°
2026-04-23 16:49 47.07557 4.10305 36225 ft 464 kts 343°
2026-04-23 16:50 47.13599 4.06876 36225 ft 467 kts 339°
2026-04-23 16:50 47.19596 4.03150 36226 ft 468 kts 339°
2026-04-23 16:51 47.25621 3.99488 36228 ft 469 kts 340°
2026-04-23 16:51 47.31671 3.95876 36238 ft 469 kts 340°
2026-04-23 16:52 47.37716 3.92271 36221 ft 468 kts 340°
2026-04-23 16:52 47.43746 3.88665 36230 ft 467 kts 340°
2026-04-23 16:53 47.49773 3.85049 36229 ft 467 kts 340°
2026-04-23 16:53 47.55792 3.81426 36233 ft 467 kts 340°
2026-04-23 16:54 47.61809 3.77815 36242 ft 466 kts 340°
2026-04-23 16:54 47.67832 3.74202 36243 ft 467 kts 340°
2026-04-23 16:55 47.73865 3.70573 36241 ft 469 kts 340°
2026-04-23 16:55 47.79918 3.66920 36253 ft 470 kts 340°
2026-04-23 16:56 47.85981 3.63252 36244 ft 471 kts 340°
2026-04-23 16:56 47.92051 3.59568 36255 ft 471 kts 340°
2026-04-23 16:57 47.98126 3.55872 36256 ft 472 kts 340°
2026-04-23 16:57 48.04200 3.52142 36251 ft 473 kts 340°
2026-04-23 16:58 48.10247 3.48414 36260 ft 473 kts 340°
2026-04-23 16:58 48.16333 3.44654 36261 ft 474 kts 340°
2026-04-23 16:59 48.22427 3.40881 36257 ft 474 kts 340°
2026-04-23 16:59 48.28528 3.37091 36259 ft 474 kts 339°
2026-04-23 17:00 48.34623 3.33295 36258 ft 475 kts 339°
2026-04-23 17:00 48.40721 3.29489 36267 ft 474 kts 339°
2026-04-23 17:01 48.46802 3.25635 36262 ft 474 kts 339°
2026-04-23 17:01 48.52861 3.21758 36270 ft 472 kts 339°
2026-04-23 17:02 48.58906 3.17888 36265 ft 472 kts 339°
2026-04-23 17:02 48.64950 3.14012 36267 ft 472 kts 339°
2026-04-23 17:03 48.70982 3.10133 36275 ft 471 kts 339°
2026-04-23 17:03 48.77005 3.06249 36275 ft 470 kts 339°
2026-04-23 17:04 48.82007 3.03014 36277 ft 470 kts 339°
2026-04-23 17:04 48.87912 2.98719 36284 ft 471 kts 332°
2026-04-23 17:05 48.93577 2.93673 36278 ft 473 kts 330°
2026-04-23 17:05 48.99232 2.88554 36289 ft 473 kts 331°
2026-04-23 17:06 49.04916 2.83496 36285 ft 474 kts 331°
2026-04-23 17:06 49.10625 2.78458 36291 ft 474 kts 331°
2026-04-23 17:07 49.16342 2.73411 36290 ft 475 kts 331°
2026-04-23 17:07 49.22062 2.68341 36297 ft 476 kts 331°
2026-04-23 17:08 49.27789 2.63249 36296 ft 476 kts 331°
2026-04-23 17:08 49.33523 2.58136 36295 ft 477 kts 331°
2026-04-23 17:09 49.39256 2.53008 36297 ft 478 kts 331°
2026-04-23 17:09 49.45000 2.47857 36296 ft 478 kts 331°
2026-04-23 17:10 49.50769 2.42751 36294 ft 478 kts 335°
2026-04-23 17:10 49.56987 2.39336 36305 ft 474 kts 346°
2026-04-23 17:11 49.63351 2.36583 36299 ft 475 kts 346°
2026-04-23 17:11 49.69719 2.33780 36299 ft 476 kts 346°
2026-04-23 17:12 49.76081 2.30900 36301 ft 477 kts 346°
2026-04-23 17:12 49.82445 2.27986 36307 ft 477 kts 346°
2026-04-23 17:13 49.88819 2.25058 36310 ft 478 kts 346°
2026-04-23 17:13 49.95202 2.22118 36316 ft 479 kts 346°
2026-04-23 17:14 50.01592 2.19172 36321 ft 479 kts 346°
2026-04-23 17:14 50.07988 2.16215 36331 ft 480 kts 346°
2026-04-23 17:15 50.14390 2.13247 36323 ft 480 kts 345°
2026-04-23 17:15 50.20795 2.10268 36327 ft 480 kts 345°
2026-04-23 17:16 50.27195 2.07284 36329 ft 480 kts 345°
2026-04-23 17:16 50.33545 2.04300 36334 ft 480 kts 343°
2026-04-23 17:17 50.39502 1.99596 36347 ft 482 kts 324°
2026-04-23 17:17 50.44637 1.92722 36339 ft 482 kts 318°
2026-04-23 17:18 50.52115 1.82271 36345 ft 482 kts 319°
2026-04-23 17:19 50.57165 1.75340 36355 ft 481 kts 319°
2026-04-23 17:19 50.62214 1.68410 36350 ft 482 kts 319°
2026-04-23 17:20 50.67250 1.61466 36353 ft 481 kts 319°
2026-04-23 17:21 50.77289 1.47550 36366 ft 480 kts 319°
2026-04-23 17:21 50.84793 1.37116 36375 ft 478 kts 318°
2026-04-23 17:22 50.92271 1.26668 36388 ft 478 kts 318°
2026-04-23 17:23 50.99730 1.16202 36399 ft 477 kts 318°
2026-04-23 17:24 51.07167 1.05713 36411 ft 477 kts 317°
2026-04-23 17:24 51.14247 0.94815 36400 ft 477 kts 314°
2026-04-23 17:25 51.21325 0.83649 36413 ft 478 kts 315°
2026-04-23 17:26 51.30816 0.68795 36412 ft 478 kts 315°
2026-04-23 17:27 51.37925 0.57624 36415 ft 477 kts 315°
2026-04-23 17:27 51.42656 0.50151 36414 ft 478 kts 314°
2026-04-23 17:28 51.47384 0.42663 36412 ft 478 kts 314°
2026-04-23 17:28 51.52082 0.35201 36417 ft 479 kts 314°
2026-04-23 17:29 51.56816 0.27657 36415 ft 479 kts 314°
2026-04-23 17:30 51.63148 0.17531 36413 ft 481 kts 314°
2026-04-23 17:30 51.70973 0.04794 36414 ft 481 kts 313°
2026-04-23 17:31 51.75652 -0.02937 36414 ft 482 kts 313°
2026-04-23 17:31 51.80312 -0.10645 36399 ft 472 kts 315°
2026-04-23 17:32 51.82577 -0.14398 36394 ft 461 kts 315°
2026-04-23 17:32 51.84782 -0.18056 36399 ft 448 kts 316°
2026-04-23 17:32 51.89059 -0.25167 36399 ft 434 kts 315°
2026-04-23 17:33 51.93236 -0.32122 36359 ft 433 kts 315°
2026-04-23 17:33 51.95370 -0.35681 35835 ft 445 kts 315°
2026-04-23 17:33 51.97532 -0.39294 35213 ft 445 kts 315°
2026-04-23 17:34 51.99682 -0.42898 34611 ft 445 kts 315°
2026-04-23 17:34 52.01833 -0.46507 33957 ft 445 kts 315°
2026-04-23 17:34 52.06101 -0.53681 33001 ft 438 kts 314°
2026-04-23 17:35 52.08208 -0.57230 32543 ft 434 kts 314°
2026-04-23 17:35 52.12368 -0.64252 31637 ft 428 kts 315°
2026-04-23 17:35 52.14422 -0.67730 31200 ft 424 kts 315°
2026-04-23 17:36 52.16460 -0.71185 30759 ft 421 kts 315°
2026-04-23 17:36 52.18480 -0.74612 30323 ft 418 kts 315°
2026-04-23 17:36 52.20482 -0.78014 29882 ft 414 kts 315°
2026-04-23 17:36 52.22465 -0.81388 29436 ft 410 kts 315°
2026-04-23 17:37 52.24472 -0.84662 28983 ft 406 kts 320°
2026-04-23 17:37 52.26721 -0.87377 28600 ft 399 kts 329°
2026-04-23 17:37 52.31447 -0.91989 27723 ft 393 kts 330°
2026-04-23 17:38 52.33787 -0.94262 27291 ft 390 kts 330°
2026-04-23 17:38 52.36107 -0.96537 26865 ft 387 kts 330°
2026-04-23 17:38 52.38399 -0.98806 26425 ft 384 kts 330°
2026-04-23 17:38 52.40673 -1.01072 26002 ft 381 kts 330°
2026-04-23 17:39 52.42897 -1.03292 25580 ft 378 kts 330°
2026-04-23 17:39 52.45135 -1.05528 25157 ft 376 kts 330°
2026-04-23 17:39 52.47357 -1.07752 24735 ft 373 kts 330°
2026-04-23 17:39 52.49563 -1.09965 24317 ft 370 kts 330°
2026-04-23 17:40 52.51745 -1.12175 23910 ft 368 kts 330°
2026-04-23 17:40 52.53913 -1.14377 23495 ft 365 kts 330°
2026-04-23 17:40 52.56066 -1.16566 23084 ft 362 kts 330°
2026-04-23 17:40 52.58207 -1.18736 22673 ft 360 kts 330°
2026-04-23 17:41 52.60335 -1.20888 22268 ft 358 kts 330°
2026-04-23 17:41 52.64552 -1.25159 21456 ft 354 kts 330°
2026-04-23 17:41 52.66639 -1.27279 21051 ft 352 kts 330°
2026-04-23 17:42 52.70786 -1.31497 20251 ft 349 kts 330°
2026-04-23 17:42 52.72859 -1.33604 19829 ft 350 kts 330°
2026-04-23 17:42 52.74935 -1.35716 19410 ft 352 kts 330°
2026-04-23 17:43 52.77028 -1.37846 18997 ft 354 kts 329°
2026-04-23 17:43 52.79133 -1.39992 18573 ft 356 kts 329°
2026-04-23 17:43 52.81238 -1.42141 18148 ft 356 kts 329°
2026-04-23 17:43 52.83347 -1.44297 17719 ft 356 kts 329°
2026-04-23 17:44 52.85457 -1.46457 17282 ft 357 kts 329°
2026-04-23 17:44 52.87565 -1.48619 16854 ft 355 kts 329°
2026-04-23 17:44 52.91737 -1.52903 16011 ft 351 kts 329°
2026-04-23 17:45 52.93808 -1.55032 15593 ft 349 kts 329°
2026-04-23 17:45 52.97908 -1.59257 14759 ft 345 kts 328°
2026-04-23 17:45 52.99943 -1.61356 14340 ft 344 kts 328°
2026-04-23 17:46 53.03979 -1.65527 13525 ft 340 kts 328°
2026-04-23 17:46 53.05909 -1.67785 13094 ft 339 kts 315°
2026-04-23 17:46 53.07444 -1.70727 12717 ft 336 kts 308°
2026-04-23 17:47 53.08902 -1.73691 12296 ft 326 kts 309°
2026-04-23 17:47 53.10340 -1.76536 11914 ft 316 kts 309°
2026-04-23 17:47 53.13115 -1.81950 11175 ft 299 kts 309°
2026-04-23 17:48 53.14457 -1.84558 10823 ft 293 kts 310°
2026-04-23 17:48 53.15765 -1.87100 10488 ft 285 kts 309°
2026-04-23 17:48 53.17043 -1.89589 10149 ft 282 kts 309°
2026-04-23 17:48 53.18320 -1.92078 9823 ft 283 kts 310°
2026-04-23 17:49 53.19601 -1.94581 9487 ft 283 kts 310°
2026-04-23 17:49 53.20448 -1.96234 9271 ft 284 kts 310°
2026-04-23 17:49 53.21731 -1.98743 8934 ft 284 kts 310°
2026-04-23 17:49 53.22999 -2.01252 8587 ft 280 kts 308°
2026-04-23 17:50 53.23887 -2.04075 8228 ft 273 kts 282°
2026-04-23 17:50 53.23066 -2.09769 7682 ft 253 kts 232°
2026-04-23 17:50 53.22003 -2.12106 7408 ft 252 kts 230°
2026-04-23 17:51 53.20917 -2.14409 7186 ft 255 kts 230°
2026-04-23 17:51 53.19809 -2.16754 6953 ft 258 kts 230°
2026-04-23 17:51 53.17595 -2.21420 6525 ft 255 kts 230°
2026-04-23 17:52 53.16506 -2.23722 6344 ft 252 kts 230°
2026-04-23 17:52 53.14375 -2.28241 6046 ft 245 kts 230°
2026-04-23 17:52 53.13307 -2.30511 5613 ft 250 kts 230°
2026-04-23 17:53 53.11193 -2.35014 5400 ft 247 kts 230°
2026-04-23 17:53 53.10143 -2.37257 5370 ft 246 kts 230°
2026-04-23 17:53 53.09073 -2.39539 5108 ft 254 kts 230°
2026-04-23 17:54 53.07988 -2.41860 4860 ft 254 kts 232°
2026-04-23 17:54 53.07361 -2.44579 4576 ft 257 kts 268°
2026-04-23 17:54 53.09092 -2.49413 4103 ft 251 kts 328°
2026-04-23 17:55 53.12357 -2.51115 3617 ft 245 kts 352°
2026-04-23 17:55 53.14035 -2.51608 3370 ft 244 kts 352°
2026-04-23 17:55 53.15683 -2.52112 3098 ft 238 kts 352°
2026-04-23 17:56 53.17259 -2.52614 3034 ft 221 kts 352°
2026-04-23 17:56 53.20077 -2.53528 2980 ft 200 kts 352°
2026-04-23 17:56 53.21448 -2.53802 2964 ft 196 kts 11°
2026-04-23 17:57 53.22514 -2.52684 3000 ft 182 kts 58°
2026-04-23 17:57 53.23268 -2.50966 2981 ft 188 kts 44°
2026-04-23 17:57 53.25050 -2.47816 2725 ft 189 kts 61°
2026-04-23 17:58 53.25878 -2.46141 2461 ft 184 kts 47°
2026-04-23 17:58 53.26687 -2.44539 2206 ft 176 kts 54°
2026-04-23 17:58 53.27417 -2.42986 1997 ft 164 kts 53°
2026-04-23 17:58 53.28112 -2.41540 1768 ft 156 kts 53°
2026-04-23 17:59 53.28792 -2.40132 1572 ft 156 kts 52°
2026-04-23 17:59 53.29460 -2.38755 1379 ft 152 kts 52°
2026-04-23 17:59 53.30117 -2.37406 1192 ft 146 kts 52°
2026-04-23 17:59 53.30755 -2.36079 979 ft 147 kts 52°
2026-04-23 18:00 53.31402 -2.34755 798 ft 149 kts 52°
2026-04-23 18:00 53.32059 -2.33417 624 ft 150 kts 52°
2026-04-23 18:00 53.32716 -2.32068 425 ft 149 kts 53°
2026-04-23 18:00 53.33368 -2.30726 236 ft 148 kts 54°
2026-04-23 18:01 53.33936 -2.29539 225 ft 110 kts 51°
2026-04-23 18:01 53.34320 -2.28743 224 ft 66 kts 51°
2026-04-23 18:01 53.34542 -2.28286 227 ft 44 kts 51°
2026-04-23 18:01 53.34721 -2.27914 224 ft 39 kts 51°
2026-04-23 18:02 53.34875 -2.27594 222 ft 33 kts 51°
2026-04-23 18:02 53.35007 -2.27323 225 ft 26 kts 44°
2026-04-23 18:02 53.35164 -2.27246 231 ft 23 kts 11°
2026-04-23 18:02 53.35308 -2.27165 241 ft 22 kts 45°
2026-04-23 18:03 53.35403 -2.26971 247 ft 21 kts 51°
2026-04-23 18:03 53.35493 -2.26782 256 ft 20 kts 51°
2026-04-23 18:03 53.35590 -2.26626 264 ft 20 kts 19°
2026-04-23 18:03 53.35722 -2.26652 268 ft 19 kts 350°
2026-04-23 18:04 53.35846 -2.26687 265 ft 17 kts 350°
2026-04-23 18:04 53.35892 -2.26701 260 ft 2 kts 350°
2026-04-23 18:04 53.35943 -2.26715 255 ft 13 kts 351°
2026-04-23 18:04 53.35997 -2.26746 254 ft 0 kts 328°
2026-04-23 18:05 53.35997 -2.26756 254 ft 2 kts 275°
2026-04-23 18:05 53.36003 -2.26823 254 ft 8 kts 301°
2026-04-23 18:05 53.36028 -2.26871 254 ft 1 kts 313°
2026-04-23 18:05 53.36035 -2.26882 254 ft 1 kts 313°
2026-04-23 18:06 53.36036 -2.26884 254 ft 0 kts 313°